This is the latest recevied weather packets stored in our database for station/object N5JXS. If no packets are shown the sender has not sent any weather packets the latest 10 day(s).
| Time | Temp. | Humidity | Pressure | Rain* | Wind** | Luminosity | Snow |
|---|---|---|---|---|---|---|---|
| 1777943211 | 10.56° C | 51% | 1014.5 hPa | 0 mm | - | 3 W/m² | - |
| 1777942909 | 10.56° C | 51% | 1014.1 hPa | 0 mm | - | 3 W/m² | - |
| 1777942604 | 10.56° C | 51% | 1013.9 hPa | 0 mm | - | 3 W/m² | - |
| 1777942302 | 10.56° C | 51% | 1013.9 hPa | 0 mm | - | 6 W/m² | - |
| 1777941998 | 10.56° C | 50% | 1013.6 hPa | 0 mm | - | 9 W/m² | - |
| 1777941695 | 11.11° C | 49% | 1013.4 hPa | 0 mm | - | 12 W/m² | - |
| 1777941392 | 11.11° C | 48% | 1013.5 hPa | 0 mm | - | 11 W/m² | - |
| 1777941090 | 11.67° C | 47% | 1013.1 hPa | 0 mm | - | 19 W/m² | - |
| 1777940786 | 11.67° C | 44% | 1013.3 hPa | 0 mm | - | 31 W/m² | - |
| 1777940484 | 11.67° C | 44% | 1013.3 hPa | 0 mm | - | 41 W/m² | - |
| 1777940181 | 12.22° C | 43% | 1013 hPa | 0 mm | - | 43 W/m² | - |
| 1777939879 | 12.22° C | 43% | 1012.8 hPa | 0 mm | - | 51 W/m² | - |
| 1777939575 | 12.22° C | 41% | 1012.9 hPa | 0 mm | - | 65 W/m² | - |
| 1777939273 | 12.78° C | 40% | 1013 hPa | 0 mm | - | 52 W/m² | - |
| 1777938969 | 12.78° C | 39% | 1012.9 hPa | 0 mm | - | 51 W/m² | - |
| 1777938666 | 13.33° C | 38% | 1012.8 hPa | 0 mm | - | 60 W/m² | - |
| 1777938363 | 13.89° C | 37% | 1012.6 hPa | 0 mm | - | 69 W/m² | - |
| 1777938060 | 13.89° C | 37% | 1013 hPa | 0 mm | - | 137 W/m² | - |
| 1777937755 | 13.89° C | 38% | 1013.1 hPa | 0 mm | - | 140 W/m² | - |
| 1777937452 | 13.89° C | 37% | 1012.9 hPa | 0 mm | - | 140 W/m² | - |
| 1777937150 | 13.89° C | 38% | 1013.3 hPa | 0 mm | - | 168 W/m² | - |
| 1777936847 | 14.44° C | 37% | 1013.3 hPa | 0 mm | - | 136 W/m² | - |
| 1777936543 | 13.89° C | 37% | 1013 hPa | 0 mm | - | 138 W/m² | - |
| 1777936240 | 13.89° C | 37% | 1012.9 hPa | 0 mm | - | 124 W/m² | - |
| 1777935936 | 13.89° C | 37% | 1012.8 hPa | 0 mm | - | 140 W/m² | - |
* Rain latest hour (hover to see other rain measurements)
** Current wind speed in m/s (hover to see current wind gust speed)